Regional Weather Roundup
Issued by NWS

Home | Current Version | Previous Version | Graphics & Text | Print | Product List | Glossary On
Versions: 1 2 3 4 5 6 7 8 9 10 11 12 13 14 15 16 17 18 19 20 21 22 23 24 25 26 27 28 29 30 31 32 33 34 35 36 37 38 39 40 41 42 43 44 45 46 47 48 49 50
000
ASUS44 KMEG 272210
RWRTN
TENNESSEE HOURLY STATE WEATHER ROUNDUP
NATIONAL WEATHER SERVICE MEMPHIS TN
500 PM CDT TUE SEP 27 2016

TNZ002-004-019-021-049-052-054-088>092-272300-
WEST TENNESSEE

CITY           SKY/WX    TMP DP  RH WIND       PRES   REMARKS
MEMPHIS INTL   MOSUNNY   80  39  23 NW6       29.95F
NWS MEMPHIS      N/A     80 N/A N/A MISG        N/A
JACKSON        SUNNY    N/A N/A N/A NW7       29.95F
DYERSBURG      SUNNY    N/A N/A N/A MISG        N/A
UNION CITY     SUNNY     79  46  31 W6        29.93F
PARIS          SUNNY     75  43  31 SW3       29.95F
HUNTINGDON     SUNNY     77  43  29 W5        29.94S
LEXINGTON      SUNNY     75  39  27 CALM      29.94F
$$

TNZ008-025-027-028-033-062-065-066-272300-
NORTH MIDDLE TENNESSEE

CITY           SKY/WX    TMP DP  RH WIND       PRES   REMARKS
NASHVILLE      SUNNY     78  43  28 W9        29.94F
PORTLAND       SUNNY     73  43  33 SW3       29.94F
CLARKSVILLE    SUNNY     75  45  34 SW7       29.93F
SMYRNA         SUNNY     77  45  32 N5        29.94F
COOKEVILLE     SUNNY     77  45  31 VRB3      29.93F
GALLATIN       SUNNY     75  39  27 VRB7      29.96F
CROSSVILLE     SUNNY     74  41  30 W9        29.96S
$$

TNZ061-075-076-078-094-096-097-272300-
SOUTH MIDDLE TENNESSEE

CITY           SKY/WX    TMP DP  RH WIND       PRES   REMARKS
FAYETTEVILLE   SUNNY     79  43  27 NW6       29.93S
TULLAHOMA      SUNNY     75  37  25 N7        29.94F
WINCHESTER     MOSUNNY   79  43  27 NW6       29.92F
MCMINNVILLE    SUNNY     77  46  33 N7        29.94S
COLUMBIA       SUNNY     75  43  31 NW3       29.93F
SHELBYVILLE    SUNNY     81  45  28 NW10      29.94S
$$

TNZ017-018-042-046-047-272300-
NORTHEAST TENNESSEE

CITY           SKY/WX    TMP DP  RH WIND       PRES   REMARKS
TRI CITIES     MOSUNNY   76  60  57 NW7       29.91S
ELIZABETHTON   DRIZZLE   77  63  61 VRB6      29.91S
$$

TNZ012-013-036-069-073-074-272300-
CENTRAL EAST TENNESSEE

CITY           SKY/WX    TMP DP  RH WIND       PRES   REMARKS
KNOXVILLE      MOSUNNY   79  58  48 W5        29.89S
DOWNTOWN KNOXV PTSUNNY   81  59  47 SW7       29.89S
GATLINBURG     MOSUNNY   79  61  53 W8        29.89S
MORRISTOWN     SUNNY     77  52  41 W7        29.90S
JACKSBORO      SUNNY     79  36  21 VRB3      29.93S
$$

TNZ083-085-099-272300-
SOUTHEAST TENNESSEE

CITY           SKY/WX    TMP DP  RH WIND       PRES   REMARKS
CHATTANOOGA    MOSUNNY   83  64  52 N5        29.88F
$$

SKY/WX REPORTED AS FAIR MEANS FEW OR NO CLOUDS BELOW
12 THOUSAND FEET.





USA.gov is the U.S. government's official web portal to all federal, state and local government web resources and services.